Temp
62 60 60 60 60 59 58 60 62 61 61 61 62 61 60 60 61 62 62 61 62 60
63 61 59 61 60 59 61 60 60 59 60 59 61 61 60 59 60 61 61 61 61 62
61 61 61 61 59 59 58 59 58 59 57 58 60 59 60 59 60 61 60 60 60 61
59 60 60 59 59 58 58 57 57 55 56 58 57 56 56 57 59 59 59 60 59 59
58 58 58 58 57 58 56 55 53 53 54 55 55 55 54 54 57 57 57 58 58 59
56 55 55 55 56 55 54 53 51 51 51 50 50 51 53 53 54 56 57 58 55 56
53 52 53 54 54 53 53 51 50 50 50 50 50 50 50 52 53 54 57 57 57 57
50 51 51 52 52 52 51 50 50 50 50 50 49 50 50 50 52 53 53 54 55 55
48 48 49 51 51 49 49 49 49 50 49 48 49 48 48 48 52 52 51 50 51 53
46 46 47 49 50 48 48 49 50 48 49 48 48 48 48 49 50 50 50 49 48 47
44 45 45 46 48 48 48 48 47 47 47 47 47 47 47 47 47 47 47 48 48 47
43 43 43 43 44 45 44 44 44 46 47 47 47 47 47 48 47 46 46 47 47 47
43 43 42 42 42 43 43 42 43 43 44 46 46 47 47 47 47 45 45 46 46 47
42 42 43 42 42 42 41 41 41 42 43 43 44 45 47 46 45 44 43 44 45 46
MSLP
1010.66 1010.52 1010.51 1010.53 1010.55 1010.69 1010.80 1010.81 1010.97 1010.99 1011.12 1011.30 1011.27 1011.38 1011.51 1011.51 1011.30 1011.20 1011.17 1011.36 1011.66 1012.10
1009.86 1009.77 1009.81 1009.73 1009.89 1010.09 1010.08 1010.17 1010.44 1010.61 1010.55 1010.67 1010.62 1010.54 1010.64 1010.56 1010.47 1010.47 1010.56 1010.66 1010.98 1011.17
1009.48 1009.23 1009.16 1009.04 1009.14 1009.42 1009.52 1009.66 1009.86 1009.97 1010.11 1010.08 1009.94 1009.93 1009.85 1009.76 1009.73 1009.67 1009.74 1009.97 1010.32 1010.54
1009.34 1008.90 1008.58 1008.46 1008.49 1008.63 1008.89 1009.15 1009.23 1009.55 1009.51 1009.43 1009.49 1009.50 1009.36 1009.13 1009.05 1009.00 1009.15 1009.29 1009.55 1009.91
1008.93 1008.58 1008.22 1007.79 1007.87 1008.12 1008.35 1008.54 1008.81 1009.02 1009.05 1009.13 1009.16 1009.05 1008.93 1008.66 1008.29 1008.28 1008.39 1008.64 1008.97 1009.18
1008.79 1008.34 1007.80 1007.49 1007.36 1007.65 1007.81 1008.04 1008.33 1008.56 1008.79 1008.84 1008.88 1008.63 1008.26 1008.04 1007.84 1007.44 1007.57 1007.90 1008.27 1008.64
1008.87 1008.45 1007.84 1007.30 1006.99 1007.10 1007.24 1007.53 1007.73 1008.01 1008.30 1008.32 1008.32 1008.16 1007.75 1007.31 1007.05 1007.00 1006.74 1007.10 1007.46 1007.92
1009.17 1008.42 1007.78 1007.15 1006.78 1006.75 1006.94 1007.17 1007.40 1007.73 1007.89 1007.96 1007.78 1007.45 1007.03 1006.61 1006.16 1005.97 1006.18 1006.50 1006.91 1007.28
1009.41 1008.52 1007.81 1007.07 1006.75 1006.70 1006.84 1006.99 1007.25 1007.58 1007.65 1007.43 1007.27 1006.64 1006.00 1005.61 1005.11 1005.06 1005.48 1006.15 1006.53 1007.05
1009.57 1008.67 1007.91 1007.23 1006.84 1006.86 1006.89 1007.06 1007.40 1007.47 1007.43 1007.26 1006.92 1006.29 1005.26 1004.78 1004.46 1004.79 1005.33 1005.98 1006.43 1007.23
1009.72 1008.86 1008.15 1007.53 1006.94 1006.94 1007.13 1007.23 1007.33 1007.46 1007.45 1007.28 1006.86 1006.26 1005.58 1005.11 1004.94 1005.19 1005.59 1006.04 1006.40 1007.09
1010.24 1009.30 1008.46 1007.90 1007.39 1007.30 1007.45 1007.46 1007.45 1007.38 1007.54 1007.36 1007.19 1006.86 1006.38 1005.80 1005.63 1005.95 1006.34 1006.69 1006.92 1007.41
1010.43 1009.57 1008.90 1008.37 1008.03 1007.87 1007.97 1008.00 1007.89 1007.90 1007.92 1007.75 1007.57 1007.42 1007.24 1006.79 1006.44 1006.73 1007.07 1007.41 1007.83 1008.08
1010.60 1009.82 1009.24 1008.86 1008.73 1008.52 1008.57 1008.52 1008.50 1008.54 1008.59 1008.41 1008.17 1008.10 1007.82 1007.71 1007.60 1007.78 1008.10 1008.48 1008.86 1009.16
Wind_Speed
11 8 8 10 8 7 7 8 11 10 10 12 12 12 12 12 12 13 12 17 15 10
9 9 9 11 9 8 10 8 10 11 11 11 13 13 14 11 13 13 13 13 16 13
10 10 11 10 10 11 10 10 10 11 10 11 12 13 14 12 13 13 11 10 14 13
11 12 10 10 10 10 9 9 10 9 8 10 11 11 12 13 14 15 13 13 14 16
11 11 13 10 9 9 10 7 7 6 6 8 10 13 13 14 14 15 15 14 13 16
11 9 10 9 7 8 8 8 7 5 5 6 7 9 12 13 14 14 14 14 10 13
9 9 9 7 7 7 7 7 7 5 5 5 6 8 10 12 15 15 13 13 14 14
11 9 9 6 5 5 6 6 5 4 3 4 6 7 10 12 15 15 12 11 11 12
10 9 8 6 4 3 4 4 4 4 4 4 5 12 17 15 12 12 12 10 9 10
9 9 8 7 3 4 4 4 5 3 3 4 5 15 12 9 5 8 9 9 8 6
10 9 8 7 2 3 2 2 3 3 2 3 4 14 7 8 6 7 6 7 10 10
10 9 7 6 4 4 4 4 2 2 1 2 3 11 12 8 9 10 9 7 8 10
10 7 4 5 5 6 5 5 4 7 6 5 2 6 10 8 7 10 8 9 10 16
9 5 5 5 6 6 7 7 8 10 8 9 10 7 9 12 7 6 7 7 7 7
Wind_Direction
247 234 232 241 243 247 247 249 251 255 237 234 238 234 232 240 245 242 235 222 215 197
264 246 236 239 240 238 243 247 252 245 248 249 247 240 229 234 238 236 237 231 223 212
278 266 252 245 238 238 239 245 239 244 246 256 254 249 244 240 242 242 233 228 225 222
286 282 260 247 242 239 241 240 237 240 254 261 260 258 253 244 240 240 242 231 224 220
292 284 271 254 240 235 234 231 219 230 256 266 269 254 249 252 239 236 234 231 221 219
300 291 282 258 237 232 227 218 205 200 236 247 265 266 252 244 246 239 222 220 213 222
308 306 299 290 252 235 221 211 193 203 228 243 259 264 257 249 238 237 226 221 222 211
313 304 299 286 263 232 205 190 170 188 223 270 263 270 285 254 239 221 213 205 213 211
314 315 304 299 281 180 150 155 172 220 252 275 281 307 293 254 235 201 190 190 192 200
315 317 319 311 218 164 154 171 206 235 302 293 304 327 287 229 179 168 176 168 150 143
333 327 330 319 265 144 149 210 190 219 337 323 340 356 27 89 100 98 107 146 150 145
327 319 326 341 15 68 73 52 341 142 233 34 21 23 19 75 90 91 88 100 121 127
316 313 347 18 25 67 60 59 51 59 32 29 350 45 44 42 70 83 82 81 89 104
308 325 24 47 41 66 64 66 60 63 47 49 40 25 69 61 62 72 71 63 73 91